Regional Weather Roundup
Issued by NWS Midland/Odessa, TX

Current Version | Previous Version | Text Only | Print | Product List | Glossary On
Versions: 1 2 3 4 5 6 7 8 9 10 11 12 13 14 15 16 17 18 19 20 21 22 23 24 25 26 27 28 29 30 31 32 33 34 35 36 37 38 39 40 41 42 43 44 45 46 47 48 49 50
000 ASUS44 KMAF 190110 RWRMAF MIDLAND AREA WEATHER ROUNDUP NATIONAL WEATHER SERVICE MIDLAND TX 800 PM CDT SUN APR 18 2021 ...IN SOUTHWEST TEXAS AND SOUTHEAST NEW MEXICO... CITY SKY/WX TMP DP RH WIND PRES REMARKS ALPINE CLEAR 55 32 40 NE15 30.14R ANDREWS MOCLDY 60 27 28 NE3 30.10S ARTESIA PTCLDY 54 36 50 CALM 30.14S BIG SPRING PTCLDY 61 24 24 N6 30.08S CARLSBAD CLEAR 54 35 48 CALM 30.10F DRYDEN N/A 64 32 30 MISG 30.06S FORT STOCKTON CLEAR 59 31 34 NE12 30.08S GUAD PASS PTCLDY 43 31 62 NE25 30.11R WCI 33 HOBBS CLOUDY 55 28 35 CALM 30.11S LAMESA NOT AVBL MARFA CLEAR 53 32 44 NE15G23 30.09R MIDLAND AIRPK CLEAR 61 26 26 NE5 30.09R MIDLAND INTL CLEAR 60 28 29 SE5 30.08S ODESSA CLEAR 60 29 30 SE8 30.09S PECOS CLEAR 59 32 35 E7 30.09S PRESIDIO FAIR 65 34 31 NE13G21 30.01R SEMINOLE CLEAR 59 28 30 CALM 30.14R SNYDER CLEAR 61 25 24 N3 30.09S WINK CLEAR 60 32 34 E6 30.07S $$ ...OTHER STATIONS IN TEXAS... CITY SKY/WX TMP DP RH WIND PRES REMARKS ABILENE CLEAR 62 30 29 NE6 30.08S AMARILLO CLEAR 59 19 21 NW5 30.06S AUSTIN MOCLDY 60 42 51 E6 30.05S BROWNSVILLE CLOUDY 60 50 69 N10 30.05R CORPUS CHRISTI CLOUDY 61 54 77 CALM 30.05R DALLAS FTW CLEAR 64 32 30 N10 30.04R DEL RIO CLEAR 72 39 30 SW5 30.03R EL PASO PTCLDY 59 31 34 E13 30.04S HOUSTON INT MOCLDY 62 44 51 NW3 30.04R LUBBOCK PTCLDY 61 20 20 N7 30.07S SAN ANGELO CLOUDY 65 32 29 E3 30.07S SAN ANTONIO MOCLDY 66 37 34 N6 30.06R WACO CLEAR 61 40 45 N5 30.06S WICHITA FALLS CLEAR 56 31 38 NW6 30.00F $$ ...OTHER LOCATIONS IN NEW MEXICO... CITY SKY/WX TMP DP RH WIND PRES REMARKS ALAMOGORDO MOCLDY 59 30 33 VRB5 30.07R ALBUQUERQUE PTCLDY 53 27 36 SW8 30.11S CANNON AFB PTCLDY 58 21 24 W6 30.09S CLOVIS PTCLDY 59 21 23 W6 30.10R HOLLOMAN AFB PTCLDY 59 31 34 W10 30.09R ROSWELL CLOUDY 54 36 50 CALM 30.12S RUIDOSO CLOUDY 43 30 61 NE3 30.16R SANTA FE MOCLDY 53 15 22 NW7 30.10S TRUTH OR CONSE PTCLDY 55 31 39 E7 30.07R TUCUMCARI CLEAR 60 17 18 S5 30.06S $$

USA.gov is the U.S. government's official web portal to all federal, state and local government web resources and services.